Location: Buena Vista Beach
(41.8098°N, 81.1279°W)
Time: 09:13:24
(UTC+00:00)

IRS-1C Rocket - Pass Details

Date: 29 October 2020
Orbit: 801 x 805 km, 99.0° (Epoch: 26 November)

Event Time Altitude Azimuth Distance (km) Brightness Sun altitude
Rises 23:30:41 0° 162° (SSE) 3,300 7.2 -13.3°
Reaches altitude 10° 23:33:00 10° 161° (SSE) 2,374 6.4 -13.8°
Maximum altitude 23:38:15 83° 75° (ENE) 816 4.0 -14.7°
Drops below altitude 10° 23:43:33 10° 348° (NNW) 2,393 6.7 -15.7°
Sets 23:45:54 0° 347° (NNW) 3,329 7.4 -16.2°
